Weather History for Asheville, NC

Change the Weather History Date:

Friday, March 30, 2012

  Actual Average Record
Temperature  
Mean Temperature 63 °F 51 °F  
Max Temperature 76 °F 63 °F 83 °F (1985)
Min Temperature 49 °F 39 °F 15 °F (1964)
Degree Days  
Heating Degree Days 2 14  
Month to date heating degree days 257 540  
Since 1 July heating degree days 3063 3757  
Cooling Degree Days 0 0  
Month to date cooling degree days 1 0  
Year to date cooling degree days 1 0  
Growing Degree Days 12 (Base 50)    
Moisture  
Dew Point 50 °F    
Average Humidity 61    
Maximum Humidity 93    
Minimum Humidity 29    
Precipitation  
Precipitation 0.16 in 0.13 in 1.56 in (1981)
Month to date precipitation 2.61 3.71  
Year to date precipitation 8.05 11.14  
Snow  
Snow 0.00 in 0.10 in 3.80 in (1915)
Month to date snowfall T 1.9  
Since 1 July snowfall T 9.2  
Snow Depth 0.00 in    
Sea Level Pressure  
Sea Level Pressure 29.94 in    
Wind  
Wind Speed 4 mph (SSE)    
Max Wind Speed 20 mph    
Max Gust Speed 26 mph    
Visibility 9 miles    
Events Rain    
T = Trace of Precipitation, MM = Missing Value Source: NWS Daily Summary

Daily Weather History Graph

Daily Weather History Graph

Search for Another Location

Airport:

Trip Planner

Search our weather history database for the weather conditions in past years. The results will help you decide how hot, cold, wet, or windy it might be!

Date:

Astronomy

Mar. 30, 2012 Rise Set
Actual Time 7:18 AM EDT 7:50 PM EDT
Civil Twilight 6:53 AM EDT 8:16 PM EDT
Nautical Twilight 6:23 AM EDT 8:46 PM EDT
Astronomical Twilight 5:52 AM EDT 9:16 PM EDT
Moon 12:32 PM EDT (3/30) 2:16 AM EDT (3/30)
Length of Visible Light 13h 22m
Length of Day
12h 31m
Waxing Crescent, 49% of the Moon is Illuminated
Mar 30
Waxing Crescent
Mar 30
First Quarter
Apr 6
Full
Apr 13
Last Quarter
Apr 21
New

Hourly Weather History & Observations

Time (EDT) Temp. Dew Point Humidity Pressure Visibility Wind Dir Wind Speed Gust Speed Precip Events Conditions
12:54 AM 57.0 °F 48.9 °F 74% 29.96 in 10.0 mi Calm Calm - N/A   Clear
1:54 AM 54.0 °F 48.0 °F 80% 29.95 in 10.0 mi Calm Calm - N/A   Clear
2:54 AM 52.0 °F 48.0 °F 86% 29.95 in 10.0 mi Calm Calm - N/A   Clear
3:54 AM 51.1 °F 46.9 °F 86% 29.94 in 10.0 mi Calm Calm - N/A   Clear
4:54 AM 51.1 °F 46.9 °F 86% 29.94 in 10.0 mi Calm Calm - N/A   Clear
5:54 AM 50.0 °F 46.9 °F 89% 29.96 in 9.0 mi Calm Calm - N/A   Scattered Clouds
6:54 AM 50.0 °F 48.0 °F 93% 29.98 in 8.0 mi Calm Calm - N/A   Mostly Cloudy
7:54 AM 52.0 °F 48.9 °F 89% 30.01 in 9.0 mi Calm Calm - N/A   Mostly Cloudy
8:54 AM 55.0 °F 50.0 °F 83% 30.01 in 10.0 mi Calm Calm - N/A   Scattered Clouds
9:54 AM 61.0 °F 51.1 °F 70% 30.00 in 10.0 mi South 3.5 mph - N/A   Clear
10:54 AM 66.9 °F 44.1 °F 44% 29.99 in 10.0 mi SSE 5.8 mph - N/A   Clear
11:54 AM 71.1 °F 37.9 °F 30% 29.96 in 10.0 mi South 6.9 mph - N/A   Clear
12:54 PM 73.9 °F 39.9 °F 29% 29.93 in 10.0 mi East 4.6 mph - N/A   Clear
1:54 PM 73.0 °F 39.0 °F 29% 29.90 in 10.0 mi SSE 9.2 mph 16.1 mph N/A   Mostly Cloudy
2:54 PM 73.0 °F 45.0 °F 37% 29.87 in 10.0 mi South 8.1 mph - N/A   Scattered Clouds
3:54 PM 73.0 °F 46.9 °F 39% 29.86 in 10.0 mi SW 16.1 mph 23.0 mph N/A   Overcast
4:54 PM 68.0 °F 51.1 °F 55% 29.90 in 10.0 mi WSW 8.1 mph - 0.00 in Rain Light Rain
5:54 PM 63.0 °F 55.0 °F 75% 29.92 in 10.0 mi North 9.2 mph - 0.01 in Rain Light Rain
6:54 PM 62.1 °F 55.0 °F 78% 29.92 in 10.0 mi NNE 4.6 mph - 0.00 in   Overcast
7:54 PM 59.0 °F 55.9 °F 90% 29.94 in 8.0 mi North 5.8 mph - 0.05 in Rain Light Rain
8:54 PM 59.0 °F 57.0 °F 93% 29.91 in 7.0 mi North 4.6 mph - 0.01 in Rain Light Rain
9:24 PM 59.0 °F 57.2 °F 94% 29.95 in 10.0 mi Calm Calm - 0.01 in   Overcast
9:34 PM 59.0 °F 57.2 °F 94% 29.95 in 9.0 mi South 3.5 mph - 0.01 in   Overcast
9:54 PM 57.9 °F 57.0 °F 97% 29.94 in 5.0 mi South 9.2 mph - 0.01 in Rain Rain
10:54 PM 57.9 °F 55.9 °F 93% 29.90 in 6.0 mi Calm Calm - 0.08 in Rain Light Rain
11:54 PM 57.9 °F 55.9 °F 93% 29.88 in 8.0 mi Calm Calm - 0.00 in   Overcast